SCP
0 0 -0 -0 -0 -0 -0 0 0 0 -0 0 0 0 0 -0 0 0 0 0 -0 -0 0 0 0 0 0 0 0 0 0 0 0 0 0 0 0 0 0 0 0 0 0 0
0 0 -0 -0 -0 0 0 0 0 -0 -0 0 0 0 -0 -0 0 0 0 -0 0 -0 -0 0 0 0 0 0 0 0 0 0 0 0 0 0 0 0 0 0 0 0 0 0
0 0 -0 -0 -0 0 0 0 0 0 0 0 0 0 0 -0 0 0 0 0 -0 -0 -0 -0 0 0 0 0 0 0 0 0 0 0 0 0 0 0 0 0 0 0 0 0
0 0 -0 -0 -0 0 0 0 0 0 0 0 0 0 0 -0 0 0 0 0 0 -0 0 0 0 0 0 0 0 0 0 0 0 0 0 0 0 0 0 0 0 0 0 0
0 0 -0 -0 -0 0 0 0 0 0 0 -0 0 0 0 0 0 0 0 0 0 0 0 0 -0 0 0 0 0 0 0 0 0 0 0 0 0 0 0 0 0 0 0 0
0 0 0 0 -0 0 0 0 0 0 0 0 0 0 0 0 0 0 0 0 0 0 0 0 0 0 0 0 0 0 0 0 0 0 0 0 0 0 0 0 0 0 0 0
0 0 0 0 0 0 0 0 0 0 0 0 0 0 0 0 0 0 0 0 0 0 0 0 0 0 0 0 0 0 0 0 0 0 0 0 0 0 0 0 0 0 0 0
0 0 0 0 0 0 0 -0 0 0 0 0 0 0 0 0 0 0 0 0 -0 0 0 0 0 0 0 0 0 0 0 0 0 0 0 0 0 0 0 0 0 0 0 0
0 0 0 0 0 0 0 -0 -0 0 0 -0 -0 -0 0 0 0 0 0 0 0 0 0 0 0 0 0 0 0 0 0 0 0 0 0 0 0 0 0 0 0 0 0 0
0 0 0 0 0 0 0 -0 -0 0 0 -0 0 0 0 -0 0 0 0 0 0 0 0 0 0 0 0 0 0 0 0 0 0 0 0 0 0 0 0 0 0 0 0 0
0 0 0 0 0 0 0 -0 -0 0 0 -0 0 0 0 0 -0 -0 0 0 0 0 0 0 0 0 0 0 0 0 0 0 0 0 0 0 0 0 0 0 0 0 0 0
0 0 0 0 0 0 0 0 0 0 0 -0 0 -0 0 0 0 -0 0 0 0 0 0 0 0 0 0 0 0 0 0 0 0 0 0 0 0 0 0 0 0 0 0 0
0 0 0 0 0 0 0 0 0 0 0 -0 -0 0 -0 0 0 -0 -0 -0 0 0 0 0 0 0 0 0 0 0 0 0 0 0 0 0 0 0 0 0 0 0 0 0
0 0 0 0 0 0 0 0 0 0 0 0 -0 -0 0 0 0 0 0 0 0 0 0 0 0 0 0 0 0 0 0 0 0 0 0 0 0 0 0 0 0 0 0 0
0 0 0 0 0 0 0 0 -0 0 0 0 0 -0 0 0 0 0 0 0 0 0 0 0 0 0 0 0 0 0 0 0 0 0 0 0 0 0 0 0 0 0 0 0
0 0 0 0 0 0 0 0 -0 -0 0 0 0 -0 -0 -0 0 0 -0 -0 0 0 0 0 0 0 0 0 0 0 -0 0 0 0 0 0 0 0 0 0 0 0 0 0
0 0 0 0 0 0 0 0 0 0 0 0 0 -0 -0 -0 -0 -0 -0 -0 -0 0 0 0 0 0 0 0 0 0 0 -0 0 0 0 0 0 0 0 0 0 0 0 0
0 0 0 0 0 0 0 0 0 0 0 -0 0 0 0 -0 -0 -0 -0 0 0 0 0 0 0 0 0 0 0 0 0 0 0 0 0 0 0 0 0 0 0 0 0 0
0 0 0 0 0 0 0 0 0 0 0 0 0 0 0 0 0 0 0 0 0 0 0 0 0 0 0 0 0 0 0 0 0 0 0 0 0 0 0 0 0 0 0 0
0 0 0 0 0 0 0 0 0 0 0 0 0 0 0 0 0 0 0 0 0 0 0 0 0 0 -0 -0 0 0 0 0 0 0 0 0 0 0 0 0 0 0 0 0
0 0 0 0 0 0 0 0 0 0 0 0 0 0 0 0 0 0 0 0 0 0 0 0 0 0 0 0 0 0 0 0 0 0 0 0 0 0 0 0 0 0 0 0
0 0 0 0 0 0 0 0 0 0 0 0 0 0 0 0 0 0 0 0 0 0 0 0 0 0 0 0 0 0 0 0 0 0 0 0 0 0 0 0 0 0 0 0
0 0 0 0 0 -0 0 0 0 0 0 0 0 0 0 0 0 0 0 0 0 0 0 0 0 0 0 0 0 0 0 0 0 0 0 0 0 0 0 0 0 0 0 0
0 0 0 0 0 0 0 0 0 0 0 0 0 0 0 -0 0 0 0 0 0 0 0 0 0 0 0 0 0 0 -0 0 0 0 0 0 0 0 0 0 0 0 0 0
0 0 0 0 0 0 0 0 0 0 0 0 0 0 0 0 0 0 0 0 0 0 0 -0 0 0 0 0 0 0 0 0 0 0 0 0 0 0 0 0 0 0 0 0
0 0 0 0 -0 0 0 0 0 0 0 0 0 0 0 0 0 0 0 0 0 0 -0 0 0 0 0 0 0 0 0 0 0 0 0 0 0 0 0 0 0 0 0 0
0 0 0 0 0 0 0 0 -0 0 0 0 0 0 0 0 0 0 0 0 0 0 0 0 0 0 0 0 0 0 0 0 0 0 0 0 0 0 0 0 0 0 0 0
Wind_Speed_500mb
49 47 41 38 38 39 27 8 6 16 43 11 4 6 10 8 7 7 2 4 3 6 5 5 4 6 10 10 8 6 6 9 3 9 9 8 6 5 8 8 6 3 6 11
48 45 38 35 38 39 30 9 7 19 27 6 3 8 8 10 10 10 9 3 10 4 9 5 8 3 13 3 5 3 2 6 6 16 12 12 6 5 6 7 5 8 8 12
46 43 35 31 37 37 18 6 6 10 16 1 7 6 6 8 14 7 9 10 5 3 7 7 4 6 1 5 11 11 2 5 8 8 12 5 11 12 5 10 6 6 10 6
44 40 31 27 33 30 9 9 4 5 5 7 3 2 5 1 3 3 8 6 12 6 13 17 7 4 3 5 5 6 8 1 3 8 13 9 15 10 5 4 6 6 12 10
42 38 27 22 30 22 16 7 6 7 7 4 9 9 5 3 2 1 4 13 13 10 8 11 27 7 2 8 7 5 4 4 6 9 8 10 5 19 14 11 6 6 0 9
40 36 24 17 22 22 7 7 2 5 10 4 1 4 1 3 4 2 9 14 9 12 9 36 46 20 8 3 12 8 6 4 5 8 13 13 8 10 5 3 3 5 7 9
37 34 22 14 17 19 9 8 5 6 3 1 3 6 6 6 6 5 6 8 8 9 10 5 8 11 9 5 8 7 9 6 4 5 12 6 5 5 9 4 9 11 8 9
34 31 20 13 14 14 9 4 2 1 5 4 4 6 10 10 9 9 10 8 7 2 17 6 5 8 8 7 14 10 9 7 4 3 2 8 1 6 2 6 6 9 9 14
31 28 18 10 13 13 8 3 6 5 15 10 14 10 5 5 6 9 3 7 14 9 4 6 6 6 6 5 4 6 15 12 7 2 2 5 2 4 6 5 8 8 7 13
27 26 17 7 9 10 8 3 8 5 5 12 14 12 4 4 3 4 7 14 6 5 5 5 4 4 3 1 2 3 6 5 6 3 3 10 8 14 5 6 11 0 2 4
23 24 17 4 5 6 4 6 6 4 2 8 17 11 11 4 4 1 12 8 4 5 6 5 4 4 2 5 3 4 5 6 3 4 1 6 13 6 5 8 4 4 14 15
20 21 16 3 2 2 9 7 3 5 5 2 3 10 17 12 19 17 8 6 5 1 8 1 5 4 4 4 2 6 4 7 6 10 8 8 9 8 10 6 8 16 13 15
18 19 15 4 4 2 6 10 5 12 10 10 5 9 5 7 6 5 7 7 7 3 3 9 4 7 6 4 2 6 11 3 5 6 4 4 3 5 4 6 11 14 12 20
17 17 13 6 6 6 6 6 3 7 6 5 7 10 6 9 10 5 8 14 12 8 5 5 5 6 2 2 5 7 4 6 2 4 8 5 10 3 7 14 11 14 16 8
17 16 11 8 9 7 6 10 4 2 6 4 3 14 8 12 10 7 8 14 9 5 2 8 3 6 6 5 7 7 11 4 6 7 5 4 8 8 16 17 17 7 2 8
19 16 9 11 12 9 9 7 9 2 6 4 1 10 12 10 4 5 5 9 11 10 7 6 7 9 6 6 3 5 7 7 5 6 4 11 13 13 14 14 10 7 4 6
20 10 8 15 15 14 8 5 10 0 7 4 3 5 7 19 13 10 7 7 3 8 7 9 7 12 7 5 4 5 20 7 7 11 19 17 25 15 17 17 14 9 11 18
11 7 10 18 15 15 7 7 2 2 3 4 5 6 1 13 7 5 6 4 4 12 8 6 6 8 10 6 8 14 17 11 12 11 16 15 14 16 26 26 22 17 21 26
3 8 16 15 13 9 8 3 5 9 7 3 4 7 6 9 7 5 6 7 7 6 9 6 6 5 7 6 17 18 4 10 13 7 1 3 12 16 21 29 31 31 33 34
10 13 10 9 11 6 4 6 6 8 6 1 5 4 1 0 3 1 3 3 6 5 3 3 6 2 6 9 27 12 10 14 15 18 12 13 21 21 19 23 24 34 36 36
6 5 4 11 11 7 6 4 3 3 5 4 3 2 2 5 3 6 2 4 2 6 4 6 5 3 5 19 30 28 13 11 16 20 27 31 28 17 24 25 34 33 36 25
5 6 8 6 4 4 5 3 4 7 3 3 3 2 5 3 4 2 1 5 3 5 10 6 2 7 2 6 10 11 13 16 20 19 19 16 6 16 16 24 31 29 28 32
6 5 4 5 4 13 4 3 4 3 3 4 8 4 6 3 2 5 5 7 3 14 5 4 8 3 5 8 11 15 17 17 19 20 24 15 18 24 26 22 21 19 27 37
4 5 8 4 4 2 5 7 7 6 4 4 5 6 1 3 4 2 6 2 7 4 4 6 6 18 9 8 11 14 16 23 26 27 24 15 19 23 22 21 17 29 32 33
5 2 0 1 5 11 18 17 12 6 3 5 3 2 2 4 6 6 6 6 4 3 6 6 16 21 14 11 15 21 25 26 26 22 23 24 18 24 27 21 18 29 32 29
5 6 8 19 27 11 14 11 7 7 4 2 3 4 5 6 5 7 3 4 3 5 7 10 20 24 17 13 20 27 31 31 26 28 31 29 25 22 23 17 15 19 19 27
3 5 22 27 21 12 7 9 10 6 2 3 4 6 3 4 6 5 1 6 6 1 6 13 24 25 22 19 22 24 29 31 32 41 41 36 37 28 17 15 12 19 19 22
Wind_Direction_500mb
346 346 345 347 354 356 354 14 65 149 146 97 52 165 204 226 187 179 123 119 121 302 166 134 227 282 211 33 355 319 320 134 354 224 261 280 218 208 134 126 249 226 165 270
347 347 347 351 356 356 354 12 63 148 180 125 264 273 257 242 182 188 189 2 97 104 282 167 196 194 290 3 54 165 285 15 18 339 356 5 12 270 134 105 80 201 153 267
348 348 349 355 357 353 358 38 45 100 193 66 144 233 291 277 65 132 167 150 98 109 209 276 199 245 214 320 91 71 34 103 153 211 234 212 305 295 133 139 123 213 230 259
348 348 353 358 359 1 28 41 45 57 0 356 344 248 174 277 206 55 72 75 75 5 9 353 289 293 306 102 79 80 85 22 198 251 255 268 288 307 225 76 213 174 295 226
348 348 355 3 1 14 47 63 51 65 39 329 355 353 26 37 194 187 236 139 168 148 102 191 275 200 194 242 26 88 54 289 33 300 331 330 88 20 48 63 39 44 88 271
347 348 354 8 8 18 45 55 119 189 359 7 70 253 282 293 211 119 216 203 136 110 162 324 303 233 272 181 158 150 128 105 52 283 340 327 12 345 9 100 97 278 274 280
347 348 349 6 8 23 36 41 130 154 246 119 308 330 248 246 177 190 181 123 110 207 330 281 20 100 84 94 40 130 129 93 79 283 2 0 271 258 315 103 19 354 29 41
347 346 345 357 359 17 17 47 79 183 96 140 326 276 246 274 222 187 172 255 68 1 287 86 46 334 21 17 26 35 83 95 61 98 243 296 255 246 273 67 316 344 97 94
347 344 340 348 350 3 23 41 62 78 125 244 240 239 265 274 287 313 249 314 299 252 104 89 152 208 246 338 124 74 73 68 113 101 257 257 277 354 153 55 315 0 98 127
345 342 336 338 348 356 10 95 80 73 114 183 209 239 258 104 17 272 321 348 9 337 66 84 159 202 185 126 340 350 26 23 109 106 264 294 278 299 162 53 249 319 141 158
343 342 333 322 342 10 80 115 101 81 54 222 235 268 286 71 141 225 344 357 321 24 77 120 198 135 181 67 311 186 179 128 134 83 46 319 351 344 17 196 168 174 138 140
339 341 331 280 294 28 125 103 113 189 189 224 272 316 341 340 293 288 280 253 282 345 85 111 126 105 83 161 198 15 60 171 184 166 218 266 346 97 121 167 173 170 174 182
333 337 326 253 211 155 128 117 57 147 158 185 242 314 327 351 38 315 301 323 349 338 346 147 127 93 122 106 293 69 354 55 81 61 331 289 217 149 142 180 180 184 214 179
327 330 321 243 207 186 174 142 64 170 183 167 224 228 300 325 293 305 338 324 308 301 237 119 116 103 186 128 161 104 267 25 73 356 317 303 255 313 170 154 161 142 130 148
324 323 310 221 207 210 173 179 198 143 224 229 212 205 235 268 297 278 297 299 307 224 124 57 70 98 88 35 77 5 346 184 121 216 296 223 280 220 185 163 146 147 286 243
320 312 287 206 196 184 154 155 187 25 3 195 153 232 216 205 220 264 299 323 4 44 72 84 79 57 99 84 112 297 342 124 94 155 132 144 136 153 178 185 200 210 302 273
318 289 236 194 180 181 190 161 153 88 334 201 358 305 203 217 238 270 268 299 26 91 90 56 46 32 66 92 105 29 357 277 149 183 158 160 176 212 232 251 263 241 263 275
305 243 202 175 169 181 173 118 190 297 294 218 121 275 100 214 253 247 222 204 94 31 73 66 55 37 37 61 326 328 322 210 205 221 247 281 275 261 243 243 237 251 271 282
229 174 167 161 161 156 160 212 223 223 263 200 118 141 206 192 243 215 189 180 79 78 57 8 55 340 45 254 341 338 331 216 164 163 240 275 250 258 264 256 250 264 278 285
132 144 158 161 163 172 209 220 207 194 184 160 86 139 234 78 25 293 156 111 127 84 305 70 64 250 238 344 6 350 248 234 242 269 267 273 275 251 279 277 282 269 278 282
126 135 123 137 153 164 189 186 147 137 50 75 100 63 275 226 125 223 201 156 96 85 240 99 6 286 223 23 39 39 20 339 338 316 294 285 281 269 290 302 289 288 290 264
77 104 105 98 120 107 88 357 10 52 162 45 88 17 302 275 260 134 62 99 87 115 155 103 225 252 228 13 37 28 12 8 354 354 358 8 311 305 324 306 296 292 277 278
94 86 70 42 16 48 119 114 351 46 95 58 10 318 334 259 289 90 99 87 91 119 50 193 223 202 145 357 349 341 324 328 345 346 348 324 337 339 348 325 328 319 300 298
71 61 2 130 298 166 176 157 167 121 97 29 331 276 280 307 33 122 102 168 104 74 110 235 241 183 178 275 299 284 282 311 324 325 318 335 333 330 336 334 338 329 323 316
72 67 18 130 115 94 107 112 108 90 3 284 295 272 281 0 78 30 78 58 66 172 208 230 205 197 223 255 257 258 279 303 314 330 317 314 305 313 320 331 328 336 335 339
46 34 76 110 101 96 105 84 40 344 298 94 82 80 64 38 90 58 86 93 193 247 227 234 200 208 220 245 260 274 286 299 302 304 300 291 294 306 317 312 319 326 331 338
67 90 96 107 120 141 109 51 15 358 41 84 69 50 51 91 59 57 90 173 218 259 258 257 232 230 238 262 278 303 294 290 300 309 298 285 286 288 291 290 287 301 314 319
Wind_Speed_850mb
49 47 41 38 38 39 27 8 6 16 43 11 4 6 10 8 7 7 2 4 3 6 5 5 4 6 10 10 8 6 6 9 3 9 9 8 6 5 8 8 6 3 6 11
48 45 38 35 38 39 30 9 7 19 27 6 3 8 8 10 10 10 9 3 10 4 9 5 8 3 13 3 5 3 2 6 6 16 12 12 6 5 6 7 5 8 8 12
46 43 35 31 37 37 18 6 6 10 16 1 7 6 6 8 14 7 9 10 5 3 7 7 4 6 1 5 11 11 2 5 8 8 12 5 11 12 5 10 6 6 10 6
44 40 31 27 33 30 9 9 4 5 5 7 3 2 5 1 3 3 8 6 12 6 13 17 7 4 3 5 5 6 8 1 3 8 13 9 15 10 5 4 6 6 12 10
42 38 27 22 30 22 16 7 6 7 7 4 9 9 5 3 2 1 4 13 13 10 8 11 27 7 2 8 7 5 4 4 6 9 8 10 5 19 14 11 6 6 0 9
40 36 24 17 22 22 7 7 2 5 10 4 1 4 1 3 4 2 9 14 9 12 9 36 46 20 8 3 12 8 6 4 5 8 13 13 8 10 5 3 3 5 7 9
37 34 22 14 17 19 9 8 5 6 3 1 3 6 6 6 6 5 6 8 8 9 10 5 8 11 9 5 8 7 9 6 4 5 12 6 5 5 9 4 9 11 8 9
34 31 20 13 14 14 9 4 2 1 5 4 4 6 10 10 9 9 10 8 7 2 17 6 5 8 8 7 14 10 9 7 4 3 2 8 1 6 2 6 6 9 9 14
31 28 18 10 13 13 8 3 6 5 15 10 14 10 5 5 6 9 3 7 14 9 4 6 6 6 6 5 4 6 15 12 7 2 2 5 2 4 6 5 8 8 7 13
27 26 17 7 9 10 8 3 8 5 5 12 14 12 4 4 3 4 7 14 6 5 5 5 4 4 3 1 2 3 6 5 6 3 3 10 8 14 5 6 11 0 2 4
23 24 17 4 5 6 4 6 6 4 2 8 17 11 11 4 4 1 12 8 4 5 6 5 4 4 2 5 3 4 5 6 3 4 1 6 13 6 5 8 4 4 14 15
20 21 16 3 2 2 9 7 3 5 5 2 3 10 17 12 19 17 8 6 5 1 8 1 5 4 4 4 2 6 4 7 6 10 8 8 9 8 10 6 8 16 13 15
18 19 15 4 4 2 6 10 5 12 10 10 5 9 5 7 6 5 7 7 7 3 3 9 4 7 6 4 2 6 11 3 5 6 4 4 3 5 4 6 11 14 12 20
17 17 13 6 6 6 6 6 3 7 6 5 7 10 6 9 10 5 8 14 12 8 5 5 5 6 2 2 5 7 4 6 2 4 8 5 10 3 7 14 11 14 16 8
17 16 11 8 9 7 6 10 4 2 6 4 3 14 8 12 10 7 8 14 9 5 2 8 3 6 6 5 7 7 11 4 6 7 5 4 8 8 16 17 17 7 2 8
19 16 9 11 12 9 9 7 9 2 6 4 1 10 12 10 4 5 5 9 11 10 7 6 7 9 6 6 3 5 7 7 5 6 4 11 13 13 14 14 10 7 4 6
20 10 8 15 15 14 8 5 10 0 7 4 3 5 7 19 13 10 7 7 3 8 7 9 7 12 7 5 4 5 20 7 7 11 19 17 25 15 17 17 14 9 11 18
11 7 10 18 15 15 7 7 2 2 3 4 5 6 1 13 7 5 6 4 4 12 8 6 6 8 10 6 8 14 17 11 12 11 16 15 14 16 26 26 22 17 21 26
3 8 16 15 13 9 8 3 5 9 7 3 4 7 6 9 7 5 6 7 7 6 9 6 6 5 7 6 17 18 4 10 13 7 1 3 12 16 21 29 31 31 33 34
10 13 10 9 11 6 4 6 6 8 6 1 5 4 1 0 3 1 3 3 6 5 3 3 6 2 6 9 27 12 10 14 15 18 12 13 21 21 19 23 24 34 36 36
6 5 4 11 11 7 6 4 3 3 5 4 3 2 2 5 3 6 2 4 2 6 4 6 5 3 5 19 30 28 13 11 16 20 27 31 28 17 24 25 34 33 36 25
5 6 8 6 4 4 5 3 4 7 3 3 3 2 5 3 4 2 1 5 3 5 10 6 2 7 2 6 10 11 13 16 20 19 19 16 6 16 16 24 31 29 28 32
6 5 4 5 4 13 4 3 4 3 3 4 8 4 6 3 2 5 5 7 3 14 5 4 8 3 5 8 11 15 17 17 19 20 24 15 18 24 26 22 21 19 27 37
4 5 8 4 4 2 5 7 7 6 4 4 5 6 1 3 4 2 6 2 7 4 4 6 6 18 9 8 11 14 16 23 26 27 24 15 19 23 22 21 17 29 32 33
5 2 0 1 5 11 18 17 12 6 3 5 3 2 2 4 6 6 6 6 4 3 6 6 16 21 14 11 15 21 25 26 26 22 23 24 18 24 27 21 18 29 32 29
5 6 8 19 27 11 14 11 7 7 4 2 3 4 5 6 5 7 3 4 3 5 7 10 20 24 17 13 20 27 31 31 26 28 31 29 25 22 23 17 15 19 19 27
3 5 22 27 21 12 7 9 10 6 2 3 4 6 3 4 6 5 1 6 6 1 6 13 24 25 22 19 22 24 29 31 32 41 41 36 37 28 17 15 12 19 19 22
Wind_Direction_850mb
346 346 345 347 354 356 354 14 65 149 146 97 52 165 204 226 187 179 123 119 121 302 166 134 227 282 211 33 355 319 320 134 354 224 261 280 218 208 134 126 249 226 165 270
347 347 347 351 356 356 354 12 63 148 180 125 264 273 257 242 182 188 189 2 97 104 282 167 196 194 290 3 54 165 285 15 18 339 356 5 12 270 134 105 80 201 153 267
348 348 349 355 357 353 358 38 45 100 193 66 144 233 291 277 65 132 167 150 98 109 209 276 199 245 214 320 91 71 34 103 153 211 234 212 305 295 133 139 123 213 230 259
348 348 353 358 359 1 28 41 45 57 0 356 344 248 174 277 206 55 72 75 75 5 9 353 289 293 306 102 79 80 85 22 198 251 255 268 288 307 225 76 213 174 295 226
348 348 355 3 1 14 47 63 51 65 39 329 355 353 26 37 194 187 236 139 168 148 102 191 275 200 194 242 26 88 54 289 33 300 331 330 88 20 48 63 39 44 88 271
347 348 354 8 8 18 45 55 119 189 359 7 70 253 282 293 211 119 216 203 136 110 162 324 303 233 272 181 158 150 128 105 52 283 340 327 12 345 9 100 97 278 274 280
347 348 349 6 8 23 36 41 130 154 246 119 308 330 248 246 177 190 181 123 110 207 330 281 20 100 84 94 40 130 129 93 79 283 2 0 271 258 315 103 19 354 29 41
347 346 345 357 359 17 17 47 79 183 96 140 326 276 246 274 222 187 172 255 68 1 287 86 46 334 21 17 26 35 83 95 61 98 243 296 255 246 273 67 316 344 97 94
347 344 340 348 350 3 23 41 62 78 125 244 240 239 265 274 287 313 249 314 299 252 104 89 152 208 246 338 124 74 73 68 113 101 257 257 277 354 153 55 315 0 98 127
345 342 336 338 348 356 10 95 80 73 114 183 209 239 258 104 17 272 321 348 9 337 66 84 159 202 185 126 340 350 26 23 109 106 264 294 278 299 162 53 249 319 141 158
343 342 333 322 342 10 80 115 101 81 54 222 235 268 286 71 141 225 344 357 321 24 77 120 198 135 181 67 311 186 179 128 134 83 46 319 351 344 17 196 168 174 138 140
339 341 331 280 294 28 125 103 113 189 189 224 272 316 341 340 293 288 280 253 282 345 85 111 126 105 83 161 198 15 60 171 184 166 218 266 346 97 121 167 173 170 174 182
333 337 326 253 211 155 128 117 57 147 158 185 242 314 327 351 38 315 301 323 349 338 346 147 127 93 122 106 293 69 354 55 81 61 331 289 217 149 142 180 180 184 214 179
327 330 321 243 207 186 174 142 64 170 183 167 224 228 300 325 293 305 338 324 308 301 237 119 116 103 186 128 161 104 267 25 73 356 317 303 255 313 170 154 161 142 130 148
324 323 310 221 207 210 173 179 198 143 224 229 212 205 235 268 297 278 297 299 307 224 124 57 70 98 88 35 77 5 346 184 121 216 296 223 280 220 185 163 146 147 286 243
320 312 287 206 196 184 154 155 187 25 3 195 153 232 216 205 220 264 299 323 4 44 72 84 79 57 99 84 112 297 342 124 94 155 132 144 136 153 178 185 200 210 302 273
318 289 236 194 180 181 190 161 153 88 334 201 358 305 203 217 238 270 268 299 26 91 90 56 46 32 66 92 105 29 357 277 149 183 158 160 176 212 232 251 263 241 263 275
305 243 202 175 169 181 173 118 190 297 294 218 121 275 100 214 253 247 222 204 94 31 73 66 55 37 37 61 326 328 322 210 205 221 247 281 275 261 243 243 237 251 271 282
229 174 167 161 161 156 160 212 223 223 263 200 118 141 206 192 243 215 189 180 79 78 57 8 55 340 45 254 341 338 331 216 164 163 240 275 250 258 264 256 250 264 278 285
132 144 158 161 163 172 209 220 207 194 184 160 86 139 234 78 25 293 156 111 127 84 305 70 64 250 238 344 6 350 248 234 242 269 267 273 275 251 279 277 282 269 278 282
126 135 123 137 153 164 189 186 147 137 50 75 100 63 275 226 125 223 201 156 96 85 240 99 6 286 223 23 39 39 20 339 338 316 294 285 281 269 290 302 289 288 290 264
77 104 105 98 120 107 88 357 10 52 162 45 88 17 302 275 260 134 62 99 87 115 155 103 225 252 228 13 37 28 12 8 354 354 358 8 311 305 324 306 296 292 277 278
94 86 70 42 16 48 119 114 351 46 95 58 10 318 334 259 289 90 99 87 91 119 50 193 223 202 145 357 349 341 324 328 345 346 348 324 337 339 348 325 328 319 300 298
71 61 2 130 298 166 176 157 167 121 97 29 331 276 280 307 33 122 102 168 104 74 110 235 241 183 178 275 299 284 282 311 324 325 318 335 333 330 336 334 338 329 323 316
72 67 18 130 115 94 107 112 108 90 3 284 295 272 281 0 78 30 78 58 66 172 208 230 205 197 223 255 257 258 279 303 314 330 317 314 305 313 320 331 328 336 335 339
46 34 76 110 101 96 105 84 40 344 298 94 82 80 64 38 90 58 86 93 193 247 227 234 200 208 220 245 260 274 286 299 302 304 300 291 294 306 317 312 319 326 331 338
67 90 96 107 120 141 109 51 15 358 41 84 69 50 51 91 59 57 90 173 218 259 258 257 232 230 238 262 278 303 294 290 300 309 298 285 286 288 291 290 287 301 314 319